Tracking 19219 objects as of 20-Jul-2018
HD Live streaming from Space Station
objects crossing your sky now

OPS 0054 (DMSP 5A F1)

Track OPS 0054 (DMSP 5A F1) now!
10-day predictions
OPS 0054 (DMSP 5A F1) is classified as:


NORAD ID: 4331
Int'l Code: 1970-012A
Perigee: 747.3 km
Apogee: 832.5 km
Inclination: 98.9 °
Period: 100.5 minutes
Semi major axis: 7160 km
RCS: 0.986 m2 (medium)
Launch date: February 11, 1970
Source: United States (US)
Launch site: AIR FORCE WESTERN TEST RANGE (AFWTR)
aabbcc
Your satellite tracking list
Your tracking list is empty




NASA's NSSDC Master Catalog

Two Line Element Set (TLE):
1  4331U 70012A   18200.61157513 -.00000010 +00000-0 +13050-4 0  9996
2  4331 098.9058 261.2362 0059454 150.7038 209.7500 14.32683861523268
Source of the keplerian elements: AFSPC